Chicago O'Hare, IL

2:46 AM CDT on August 31, 2016 (GMT -0500)
Chicago-O'Hare International

Weather History for KORD - March, 2014

Change the Weather History Date:

Tuesday, March 11, 2014

  Actual Average Record
Temperature  
Mean Temperature 42 °F 36 °F  
Max Temperature 50 °F 45 °F 74 °F (1990)
Min Temperature 34 °F 28 °F 3 °F (1979)
Degree Days  
Heating Degree Days 23 29  
Month to date heating degree days 431 338  
Since 1 July heating degree days 5846 5072  
Cooling Degree Days 0 0  
Month to date cooling degree days 0 0  
Year to date cooling degree days 0 0  
Moisture  
Dew Point 31 °F    
Average Humidity 63    
Maximum Humidity 76    
Minimum Humidity 50    
Precipitation  
Precipitation 0.14 in 0.08 in 0.92 in (1957)
Month to date precipitation 0.69 0.85  
Year to date precipitation 5.99 4.37  
Snow  
Snow 0.40 in 0.20 in 4.40 in (1941)
Month to date snowfall 7.6 2.6  
Since 1 July snowfall 75.9 32.4  
Snow Depth 0.00 in    
Sea Level Pressure  
Sea Level Pressure 29.70 in    
Wind  
Wind Speed 9 mph (NNE)    
Max Wind Speed 23 mph    
Max Gust Speed 32 mph    
Visibility 10 miles    
Events Rain , Snow    
T = Trace of Precipitation, MM = Missing Value Source: NWS Daily Summary

Daily Weather History Graph

Daily Weather History Graph

Search for Another Location

Airport or City:

Trip Planner

Search our weather history database for the weather conditions in past years. The results will help you decide how hot, cold, wet, or windy it might be!

Date:

Astronomy

Mar. 11, 2014 Rise Set
Actual Time 7:10 AM CDT 6:53 PM CDT
Civil Twilight 6:42 AM CDT 7:21 PM CDT
Nautical Twilight 6:10 AM CDT 7:53 PM CDT
Astronomical Twilight 5:37 AM CDT 8:26 PM CDT
Moon 2:26 PM CDT (3/11) 4:07 AM CDT (3/11)
Length of Visible Light 12h 39m
Length of Day
11h 43m
Waxing Gibbous, 78% of the Moon is Illuminated
Mar 11
Waxing Gibbous
Mar 16
Full
Mar 23
Last Quarter
Mar 30
New
Apr 7
First Quarter

Hourly Weather History & Observations

Time (CDT) Temp. Windchill Dew Point Humidity Pressure Visibility Wind Dir Wind Speed Gust Speed Precip Events Conditions
12:51 AM 42.1 °F 39.2 °F 35.1 °F 76% 29.67 in 10.0 mi West 4.6 mph - N/A   Mostly Cloudy
1:51 AM 41.0 °F 38.0 °F 34.0 °F 76% 29.66 in 10.0 mi WSW 4.6 mph - N/A   Mostly Cloudy
2:51 AM 41.0 °F - 34.0 °F 76% 29.65 in 10.0 mi Calm Calm - N/A   Overcast
3:51 AM 41.0 °F 39.0 °F 33.1 °F 73% 29.65 in 10.0 mi WNW 3.5 mph - N/A   Overcast
4:51 AM 39.0 °F - 32.0 °F 76% 29.64 in 10.0 mi Calm Calm - N/A   Mostly Cloudy
5:51 AM 39.0 °F - 30.9 °F 73% 29.66 in 10.0 mi Calm Calm - N/A   Mostly Cloudy
6:51 AM 37.9 °F - 30.0 °F 73% 29.66 in 10.0 mi Calm Calm - N/A   Overcast
7:51 AM 43.0 °F - 30.9 °F 62% 29.68 in 10.0 mi Calm Calm - N/A   Overcast
8:51 AM 44.1 °F - 34.0 °F 68% 29.70 in 10.0 mi Calm Calm - N/A   Overcast
9:51 AM 46.9 °F - 30.9 °F 54% 29.70 in 10.0 mi ESE 3.5 mph - N/A   Overcast
10:51 AM 48.0 °F - 30.9 °F 52% 29.68 in 10.0 mi East 8.1 mph - N/A   Overcast
11:51 AM 48.9 °F - 30.9 °F 50% 29.68 in 10.0 mi ENE 11.5 mph - N/A   Overcast
12:51 PM 48.9 °F - 30.0 °F 48% 29.70 in 10.0 mi NE 13.8 mph - N/A   Overcast
1:51 PM 46.0 °F 40.2 °F 30.0 °F 54% 29.70 in 10.0 mi NNE 12.7 mph - N/A   Overcast
2:51 PM 45.0 °F 38.5 °F 28.9 °F 53% 29.70 in 10.0 mi NE 13.8 mph - N/A   Overcast
3:51 PM 43.0 °F 34.5 °F 33.1 °F 68% 29.70 in 10.0 mi NNE 19.6 mph 25.3 mph N/A   Overcast
4:51 PM 42.1 °F 35.2 °F 33.1 °F 70% 29.71 in 10.0 mi NNE 12.7 mph 21.9 mph N/A   Overcast
5:51 PM 41.0 °F 32.5 °F 32.0 °F 70% 29.71 in 10.0 mi NE 17.3 mph 27.6 mph N/A   Overcast
6:51 PM 37.9 °F 28.9 °F 28.0 °F 68% 29.73 in 10.0 mi NNE 16.1 mph - N/A   Overcast
7:51 PM 37.9 °F 29.2 °F 28.9 °F 70% 29.76 in 10.0 mi NNE 15.0 mph - N/A   Overcast
8:51 PM 37.0 °F 27.4 °F 28.0 °F 70% 29.74 in 10.0 mi NNE 17.3 mph 24.2 mph N/A   Overcast
9:51 PM 37.0 °F 29.8 °F 30.0 °F 76% 29.77 in 10.0 mi North 10.4 mph 26.5 mph 0.00 in Rain Light Rain
10:21 PM 37.4 °F 29.3 °F 30.2 °F 75% 29.76 in 10.0 mi NNE 12.7 mph - 0.01 in Rain Light Rain
10:41 PM 35.6 °F 26.6 °F 30.2 °F 81% 29.74 in 10.0 mi NNE 13.8 mph - 0.01 in Rain Light Rain
10:51 PM 37.0 °F 28.1 °F 30.0 °F 76% 29.75 in 10.0 mi NNE 15.0 mph 21.9 mph 0.02 in Rain , Snow Light Rain
11:05 PM 35.6 °F 26.6 °F 30.2 °F 81% 29.73 in 10.0 mi NNE 13.8 mph - 0.00 in Rain , Snow Light Rain
11:43 PM 35.6 °F 26.2 °F 30.2 °F 81% 29.72 in 4.0 mi NNE 15.0 mph 24.2 mph 0.03 in Snow Light Snow
11:47 PM 35.6 °F 27.5 °F 30.2 °F 81% 29.72 in 5.0 mi NNE 11.5 mph 21.9 mph 0.03 in Snow Light Snow
11:51 PM 35.1 °F 25.5 °F 30.0 °F 82% 29.73 in 4.0 mi NNE 15.0 mph 21.9 mph 0.03 in Snow Light Snow